| time (UTC) | temp C | wind direction | speed KPH | gust KPH | rain 1hr cm | rain 24hr cm | rain mn cm | humidity % | barometer mb |
| 20260506050427 | 17 | 34 | 1.6 | 8.0 | 0.00 | 0.00 | 0.00 | 77 | 1009.1 |
| 20260506044926 | 17 | 203 | 0.0 | 4.8 | 0.00 | 0.00 | 0.00 | 77 | 1008.9 |
| 20260506044426 | 17 | 260 | 1.6 | 8.0 | 0.00 | 0.00 | 0.00 | 76 | 1008.8 |
| 20260506043924 | 17 | 241 | 1.6 | 12.9 | 0.00 | 0.00 | 0.00 | 76 | 1008.9 |
| 20260506043423 | 17 | 258 | 1.6 | 12.9 | 0.00 | 0.00 | 0.00 | 76 | 1009.0 |
| 20260506042927 | 18 | 162 | 1.6 | 6.4 | 0.00 | 0.00 | 0.00 | 76 | 1008.9 |
| 20260506042922 | 17 | 208 | 1.6 | 6.4 | 0.00 | 0.00 | 0.00 | 76 | 1008.9 |
| 20260506041928 | 18 | 239 | 1.6 | 9.7 | 0.00 | 0.00 | 0.00 | 75 | 1008.9 |
| 20260506041922 | 18 | 278 | 1.6 | 6.4 | 0.00 | 0.00 | 0.00 | 76 | 1009.0 |
| 20260506041422 | 18 | 281 | 1.6 | 9.7 | 0.00 | 0.00 | 0.00 | 75 | 1009.0 |
| 20260506040536 | 18 | 20 | 1.6 | 9.7 | 0.00 | 0.00 | 0.00 | 74 | 1008.5 |
| 20260506040426 | 18 | 236 | 1.6 | 12.9 | 0.00 | 0.00 | 0.00 | 74 | 1008.8 |
| 20260506040422 | 18 | 249 | 1.6 | 12.9 | 0.00 | 0.00 | 0.00 | 75 | 1008.8 |
| 20260506035422 | 18 | 155 | 1.6 | 9.7 | 0.00 | 0.00 | 0.00 | 75 | 1008.7 |
| 20260506034423 | 18 | 47 | 1.6 | 9.7 | 0.00 | 0.00 | 0.00 | 74 | 1008.3 |
| 20260506033920 | 18 | 232 | 1.6 | 9.7 | 0.00 | 0.00 | 0.00 | 74 | 1008.1 |
| 20260506033420 | 19 | 34 | 1.6 | 11.3 | 0.00 | 0.00 | 0.00 | 73 | 1007.9 |
| 20260506032921 | 19 | 237 | 1.6 | 11.3 | 0.00 | 0.00 | 0.00 | 73 | 1008.0 |
| 20260506032420 | 20 | 196 | 1.6 | 8.0 | 0.00 | 0.00 | 0.00 | 73 | 1007.8 |
| 20260506031920 | 20 | 256 | 1.6 | 8.0 | 0.00 | 0.00 | 0.00 | 73 | 1007.8 |
| 20260506031426 | 20 | 218 | 1.6 | 8.0 | 0.00 | 0.00 | 0.00 | 73 | 1007.5 |
| 20260506031421 | 20 | 132 | 1.6 | 8.0 | 0.00 | 0.00 | 0.00 | 73 | 1007.7 |
| 20260506030420 | 20 | 213 | 1.6 | 8.0 | 0.00 | 0.00 | 0.00 | 72 | 1007.6 |
| 20260506025922 | 20 | 245 | 0.0 | 8.0 | 0.00 | 0.00 | 0.00 | 71 | 1007.4 |
| 20260506025918 | 20 | 63 | 0.0 | 8.0 | 0.00 | 0.00 | 0.00 | 72 | 1007.6 |
| 20260506024923 | 20 | 49 | 1.6 | 11.3 | 0.00 | 0.00 | 0.00 | 71 | 1007.4 |
| 20260506024918 | 20 | 201 | 0.0 | 4.8 | 0.00 | 0.00 | 0.00 | 71 | 1007.4 |
| 20260506023918 | 20 | 257 | 1.6 | 11.3 | 0.00 | 0.00 | 0.00 | 71 | 1007.2 |
| 20260506023419 | 20 | 225 | 1.6 | 6.4 | 0.00 | 0.00 | 0.00 | 70 | 1007.1 |
| 20260506023032 | 21 | 238 | 1.6 | 6.4 | 0.00 | 0.00 | 0.00 | 69 | 1006.9 |
| 20260506022922 | 21 | 169 | 1.6 | 6.4 | 0.00 | 0.00 | 0.00 | 69 | 1007.0 |
| 20260506022918 | 20 | 265 | 1.6 | 6.4 | 0.00 | 0.00 | 0.00 | 70 | 1007.1 |
| 20260506021422 | 21 | 323 | 1.6 | 9.7 | 0.00 | 0.00 | 0.00 | 68 | 1006.6 |
| 20260506021416 | 21 | 290 | 1.6 | 8.0 | 0.00 | 0.00 | 0.00 | 69 | 1006.7 |
| 20260506020916 | 21 | 253 | 1.6 | 9.7 | 0.00 | 0.00 | 0.00 | 69 | 1006.6 |
| 20260506015916 | 21 | 226 | 1.6 | 9.7 | 0.00 | 0.00 | 0.00 | 68 | 1006.4 |
| 20260506015416 | 21 | 203 | 1.6 | 9.7 | 0.00 | 0.00 | 0.00 | 69 | 1006.1 |
| 20260506014920 | 22 | 236 | 1.6 | 11.3 | 0.00 | 0.00 | 0.00 | 68 | 1005.6 |
| 20260506014916 | 21 | 252 | 1.6 | 11.3 | 0.00 | 0.00 | 0.00 | 69 | 1006.0 |
| 20260506014535 | 22 | 252 | 0.0 | 8.0 | 0.00 | 0.00 | 0.00 | 67 | 1005.7 |
| 20260506014530 | 22 | 250 | 0.0 | 4.8 | 0.00 | 0.00 | 0.00 | 68 | 1005.7 |
| 20260506013416 | 22 | 63 | 0.0 | 8.0 | 0.00 | 0.00 | 0.00 | 68 | 1005.7 |
| 20260506013029 | 22 | 207 | 1.6 | 9.7 | 0.00 | 0.00 | 0.00 | 67 | 1005.4 |
| 20260506012528 | 22 | 285 | 1.6 | 9.7 | 0.00 | 0.00 | 0.00 | 67 | 1005.5 |
| 20260506011415 | 22 | 278 | 0.0 | 6.4 | 0.00 | 0.00 | 0.00 | 67 | 1005.3 |
| 20260506010914 | 22 | 148 | 0.0 | 4.8 | 0.00 | 0.00 | 0.00 | 66 | 1005.3 |
| 20260506010414 | 23 | 236 | 1.6 | 6.4 | 0.00 | 0.00 | 0.00 | 66 | 1005.4 |
| 20260506005919 | 23 | 352 | 0.0 | 6.4 | 0.00 | 0.00 | 0.00 | 66 | 1005.2 |
| 20260506005914 | 23 | 79 | 0.0 | 6.4 | 0.00 | 0.00 | 0.00 | 65 | 1005.4 |
| 20260506004915 | 23 | 259 | 1.6 | 9.7 | 0.00 | 0.00 | 0.00 | 66 | 1005.1 |
| 20260506004412 | 23 | 295 | 1.6 | 9.7 | 0.00 | 0.00 | 0.00 | 65 | 1005.2 |
| 20260506003912 | 24 | 205 | 1.6 | 6.4 | 0.00 | 0.00 | 0.00 | 64 | 1005.0 |
| 20260506003413 | 24 | 247 | 1.6 | 8.0 | 0.00 | 0.00 | 0.00 | 64 | 1004.5 |
| 20260506002911 | 25 | 91 | 1.6 | 8.0 | 0.00 | 0.00 | 0.00 | 64 | 1004.5 |
| 20260506002411 | 25 | 89 | 1.6 | 8.0 | 0.00 | 0.00 | 0.00 | 63 | 1004.6 |
| 20260506001913 | 25 | 311 | 1.6 | 8.0 | 0.00 | 0.00 | 0.00 | 62 | 1004.4 |
| 20260506001417 | 26 | 68 | 1.6 | 8.0 | 0.00 | 0.00 | 0.00 | 60 | 1004.3 |
| 20260506001413 | 25 | 233 | 1.6 | 8.0 | 0.00 | 0.00 | 0.00 | 61 | 1004.3 |
| 20260506000412 | 26 | 238 | 1.6 | 9.7 | 0.00 | 0.00 | 0.00 | 59 | 1004.2 |
| 20260505235909 | 26 | 247 | 1.6 | 11.3 | 0.00 | 0.00 | 0.00 | 58 | 1004.3 |
| 20260505235411 | 26 | 235 | 1.6 | 11.3 | 0.00 | 0.00 | 0.00 | 59 | 1004.2 |
| 20260505234910 | 27 | 266 | 1.6 | 8.0 | 0.00 | 0.00 | 0.00 | 58 | 1004.1 |
| 20260505234411 | 27 | 180 | 1.6 | 6.4 | 0.00 | 0.00 | 0.00 | 58 | 1004.0 |
| 20260505233908 | 27 | 115 | 1.6 | 8.0 | 0.00 | 0.00 | 0.00 | 57 | 1003.9 |
| 20260505233408 | 27 | 191 | 1.6 | 9.7 | 0.00 | 0.00 | 0.00 | 55 | 1003.9 |
| 20260505232908 | 28 | 50 | 1.6 | 9.7 | 0.00 | 0.00 | 0.00 | 55 | 1003.8 |
| 20260505232410 | 28 | 248 | 1.6 | 9.7 | 0.00 | 0.00 | 0.00 | 55 | 1003.8 |
| 20260505231907 | 28 | 79 | 3.2 | 12.9 | 0.00 | 0.00 | 0.00 | 54 | 1004.0 |
| 20260505231406 | 28 | 225 | 3.2 | 12.9 | 0.00 | 0.00 | 0.00 | 53 | 1003.8 |
| 20260505230909 | 30 | 219 | 3.2 | 20.9 | 0.00 | 0.00 | 0.00 | 51 | 1003.5 |
| 20260505230904 | 30 | 276 | 4.8 | 20.9 | 0.00 | 0.00 | 0.00 | 52 | 1003.7 |
| 20260505225910 | 31 | 262 | 1.6 | 12.9 | 0.00 | 0.00 | 0.00 | 48 | 1003.4 |
| 20260505225904 | 31 | 103 | 1.6 | 14.5 | 0.00 | 0.00 | 0.00 | 50 | 1003.7 |
| 20260505225405 | 31 | 167 | 1.6 | 14.5 | 0.00 | 0.00 | 0.00 | 51 | 1003.5 |
| 20260505224404 | 31 | 226 | 1.6 | 12.9 | 0.00 | 0.00 | 0.00 | 47 | 1003.2 |
| 20260505223905 | 32 | 47 | 1.6 | 12.9 | 0.00 | 0.00 | 0.00 | 46 | 1003.1 |
| 20260505223403 | 32 | 265 | 1.6 | 12.9 | 0.00 | 0.00 | 0.00 | 44 | 1003.2 |
| 20260505222902 | 32 | 107 | 1.6 | 6.4 | 0.00 | 0.00 | 0.00 | 43 | 1003.1 |
| 20260505222401 | 32 | 241 | 1.6 | 8.0 | 0.00 | 0.00 | 0.00 | 42 | 1003.1 |
| 20260505221859 | 33 | 108 | 3.2 | 11.3 | 0.00 | 0.00 | 0.00 | 42 | 1003.0 |
| 20260505221359 | 33 | 103 | 3.2 | 11.3 | 0.00 | 0.00 | 0.00 | 43 | 1002.9 |
| 20260505220900 | 33 | 293 | 1.6 | 9.7 | 0.00 | 0.00 | 0.00 | 42 | 1002.9 |
| 20260505220401 | 33 | 283 | 3.2 | 12.9 | 0.00 | 0.00 | 0.00 | 42 | 1002.8 |
| 20260505215900 | 33 | 232 | 1.6 | 12.9 | 0.00 | 0.00 | 0.00 | 41 | 1002.8 |
| 20260505215401 | 35 | 25 | 1.6 | 14.5 | 0.00 | 0.00 | 0.00 | 42 | 1002.8 |
| 20260505214900 | 35 | 277 | 1.6 | 14.5 | 0.00 | 0.00 | 0.00 | 40 | 1002.8 |
| 20260505214359 | 36 | 207 | 0.0 | 6.4 | 0.00 | 0.00 | 0.00 | 42 | 1002.9 |
| 20260505213858 | 35 | 210 | 0.0 | 3.2 | 0.00 | 0.00 | 0.00 | 43 | 1002.8 |
| 20260505213359 | 35 | 233 | 0.0 | 4.8 | 0.00 | 0.00 | 0.00 | 41 | 1002.8 |
| 20260505212901 | 35 | 226 | 1.6 | 6.4 | 0.00 | 0.00 | 0.00 | 43 | 1002.8 |
| 20260505212857 | 34 | 274 | 1.6 | 12.9 | 0.00 | 0.00 | 0.00 | 41 | 1002.7 |
| 20260505211901 | 35 | 290 | 1.6 | 11.3 | 0.00 | 0.00 | 0.00 | 41 | 1002.9 |
| 20260505211856 | 34 | 256 | 1.6 | 12.9 | 0.00 | 0.00 | 0.00 | 42 | 1002.8 |
| 20260505211510 | 35 | 278 | 1.6 | 9.7 | 0.00 | 0.00 | 0.00 | 43 | 1003.1 |
| 20260505210855 | 35 | 210 | 1.6 | 9.7 | 0.00 | 0.00 | 0.00 | 41 | 1003.1 |
| 20260505205855 | 35 | 238 | 1.6 | 9.7 | 0.00 | 0.00 | 0.00 | 44 | 1003.1 |
| 20260505205356 | 35 | 252 | 1.6 | 8.0 | 0.00 | 0.00 | 0.00 | 45 | 1003.1 |
| 20260505204859 | 34 | 189 | 1.6 | 14.5 | 0.00 | 0.00 | 0.00 | 43 | 1003.3 |
| 20260505204855 | 34 | 244 | 1.6 | 14.5 | 0.00 | 0.00 | 0.00 | 45 | 1003.3 |
| 20260505203853 | 34 | 229 | 1.6 | 14.5 | 0.00 | 0.00 | 0.00 | 45 | 1003.4 |
| 20260505203352 | 34 | 254 | 1.6 | 14.5 | 0.00 | 0.00 | 0.00 | 46 | 1003.4 |
| 20260505202851 | 34 | 225 | 1.6 | 11.3 | 0.00 | 0.00 | 0.00 | 45 | 1003.4 |
| 20260505202351 | 34 | 263 | 1.6 | 9.7 | 0.00 | 0.00 | 0.00 | 47 | 1003.4 |
| 20260505201852 | 34 | 231 | 1.6 | 8.0 | 0.00 | 0.00 | 0.00 | 46 | 1003.7 |
| 20260505201352 | 34 | 141 | 1.6 | 11.3 | 0.00 | 0.00 | 0.00 | 47 | 1003.7 |
| 20260505200857 | 33 | 296 | 1.6 | 11.3 | 0.00 | 0.00 | 0.00 | 52 | 1003.7 |
| 20260505200852 | 34 | 168 | 1.6 | 11.3 | 0.00 | 0.00 | 0.00 | 49 | 1003.6 |
| 20260505200351 | 34 | 231 | 1.6 | 11.3 | 0.00 | 0.00 | 0.00 | 46 | 1003.7 |
| 20260505195852 | 34 | 239 | 1.6 | 11.3 | 0.00 | 0.00 | 0.00 | 51 | 1003.7 |
| 20260505194851 | 33 | 230 | 1.6 | 8.0 | 0.00 | 0.00 | 0.00 | 51 | 1003.7 |
| 20260505194352 | 33 | 253 | 0.0 | 8.0 | 0.00 | 0.00 | 0.00 | 51 | 1003.8 |
| 20260505193851 | 33 | 98 | 1.6 | 6.4 | 0.00 | 0.00 | 0.00 | 53 | 1003.7 |
| 20260505193356 | 33 | 253 | 1.6 | 12.9 | 0.00 | 0.00 | 0.00 | 54 | 1003.8 |
| 20260505193352 | 33 | 232 | 1.6 | 12.9 | 0.00 | 0.00 | 0.00 | 54 | 1003.7 |
| 20260505192351 | 33 | 214 | 1.6 | 8.0 | 0.00 | 0.00 | 0.00 | 53 | 1003.9 |
| 20260505191851 | 32 | 238 | 1.6 | 9.7 | 0.00 | 0.00 | 0.00 | 53 | 1003.8 |
| 20260505191353 | 32 | 230 | 1.6 | 9.7 | 0.00 | 0.00 | 0.00 | 56 | 1003.8 |
| 20260505190851 | 32 | 24 | 1.6 | 11.3 | 0.00 | 0.00 | 0.00 | 54 | 1003.9 |
| 20260505190351 | 32 | 240 | 1.6 | 11.3 | 0.00 | 0.00 | 0.00 | 56 | 1003.8 |
| 20260505185851 | 31 | 297 | 3.2 | 11.3 | 0.00 | 0.00 | 0.00 | 58 | 1003.9 |
| 20260505185352 | 31 | 239 | 3.2 | 9.7 | 0.00 | 0.00 | 0.00 | 59 | 1003.9 |
| 20260505184853 | 31 | 250 | 1.6 | 9.7 | 0.00 | 0.00 | 0.00 | 58 | 1003.9 |
| 20260505184354 | 31 | 234 | 3.2 | 9.7 | 0.00 | 0.00 | 0.00 | 60 | 1004.0 |
| 20260505184350 | 31 | 204 | 1.6 | 8.0 | 0.00 | 0.00 | 0.00 | 58 | 1004.0 |
| 20260505183350 | 30 | 206 | 4.8 | 12.9 | 0.00 | 0.00 | 0.00 | 59 | 1004.0 |
| 20260505182849 | 30 | 219 | 3.2 | 12.9 | 0.00 | 0.00 | 0.00 | 59 | 1004.1 |
| 20260505182350 | 30 | 250 | 1.6 | 9.7 | 0.00 | 0.00 | 0.00 | 59 | 1004.1 |
| 20260505181856 | 30 | 232 | 3.2 | 14.5 | 0.00 | 0.00 | 0.00 | 61 | 1004.2 |
| 20260505181849 | 30 | 275 | 3.2 | 9.7 | 0.00 | 0.00 | 0.00 | 60 | 1004.1 |
| 20260505180851 | 30 | 224 | 4.8 | 14.5 | 0.00 | 0.00 | 0.00 | 60 | 1004.1 |
| 20260505180349 | 30 | 76 | 3.2 | 12.9 | 0.00 | 0.00 | 0.00 | 60 | 1004.1 |
| 20260505175852 | 30 | 309 | 3.2 | 14.5 | 0.00 | 0.00 | 0.00 | 63 | 1004.2 |
| 20260505175353 | 30 | 215 | 3.2 | 14.5 | 0.00 | 0.00 | 0.00 | 62 | 1004.3 |
| 20260505174850 | 29 | 177 | 3.2 | 14.5 | 0.00 | 0.00 | 0.00 | 63 | 1004.2 |
| 20260505174349 | 29 | 236 | 4.8 | 14.5 | 0.00 | 0.00 | 0.00 | 63 | 1004.2 |
| 20260505173849 | 30 | 208 | 4.8 | 12.9 | 0.00 | 0.00 | 0.00 | 61 | 1004.3 |
| 20260505173350 | 30 | 240 | 3.2 | 12.9 | 0.00 | 0.00 | 0.00 | 61 | 1004.3 |
| 20260505172848 | 30 | 238 | 1.6 | 9.7 | 0.00 | 0.00 | 0.00 | 61 | 1004.3 |
| 20260505172348 | 30 | 200 | 1.6 | 8.0 | 0.00 | 0.00 | 0.00 | 62 | 1004.3 |
| 20260505171851 | 29 | 243 | 3.2 | 11.3 | 0.00 | 0.00 | 0.00 | 63 | 1004.3 |
| 20260505171846 | 29 | 210 | 3.2 | 11.3 | 0.00 | 0.00 | 0.00 | 64 | 1004.2 |
| 20260505170843 | 29 | 217 | 3.2 | 11.3 | 0.00 | 0.00 | 0.00 | 63 | 1004.3 |
| 20260505170351 | 29 | 177 | 3.2 | 16.1 | 0.00 | 0.00 | 0.00 | 64 | 1004.3 |
| 20260505170344 | 29 | 225 | 3.2 | 11.3 | 0.00 | 0.00 | 0.00 | 63 | 1004.3 |
| 20260505165341 | 29 | 217 | 3.2 | 16.1 | 0.00 | 0.00 | 0.00 | 63 | 1004.2 |
| 20260505164838 | 29 | 266 | 3.2 | 14.5 | 0.00 | 0.00 | 0.00 | 64 | 1004.2 |
| 20260505164338 | 28 | 137 | 4.8 | 14.5 | 0.00 | 0.00 | 0.00 | 66 | 1004.3 |
| 20260505163841 | 28 | 323 | 3.2 | 12.9 | 0.00 | 0.00 | 0.00 | 66 | 1004.3 |
| 20260505163837 | 28 | 167 | 4.8 | 14.5 | 0.00 | 0.00 | 0.00 | 66 | 1004.3 |
| 20260505162841 | 28 | 252 | 3.2 | 16.1 | 0.00 | 0.00 | 0.00 | 67 | 1004.1 |
| 20260505162837 | 28 | 240 | 3.2 | 12.9 | 0.00 | 0.00 | 0.00 | 66 | 1004.1 |
| 20260505161837 | 28 | 245 | 4.8 | 16.1 | 0.00 | 0.00 | 0.00 | 69 | 1004.2 |
| 20260505161335 | 27 | 238 | 4.8 | 12.9 | 0.00 | 0.00 | 0.00 | 68 | 1004.2 |
| 20260505160835 | 27 | 347 | 4.8 | 19.3 | 0.00 | 0.00 | 0.00 | 69 | 1004.2 |
| 20260505160335 | 27 | 314 | 4.8 | 19.3 | 0.00 | 0.00 | 0.00 | 69 | 1004.0 |
| 20260505153331 | 26 | 79 | 3.2 | 14.5 | 0.00 | 0.00 | 0.00 | 73 | 1003.7 |
| 20260505152831 | 26 | 203 | 3.2 | 14.5 | 0.00 | 0.00 | 0.00 | 74 | 1003.7 |
| 20260505152331 | 26 | 252 | 3.2 | 14.5 | 0.00 | 0.00 | 0.00 | 73 | 1003.8 |
| 20260505151831 | 26 | 136 | 3.2 | 12.9 | 0.00 | 0.00 | 0.00 | 74 | 1003.9 |
| 20260505151335 | 25 | 178 | 3.2 | 14.5 | 0.00 | 0.00 | 0.00 | 76 | 1003.9 |
| 20260505151331 | 25 | 83 | 3.2 | 9.7 | 0.00 | 0.00 | 0.00 | 75 | 1003.9 |
| 20260505150330 | 25 | 153 | 4.8 | 14.5 | 0.00 | 0.00 | 0.00 | 77 | 1003.9 |
| 20260505124326 | 21 | 229 | 3.2 | 11.3 | 0.00 | 0.00 | 0.00 | 84 | 1003.3 |
| 20260505124321 | 21 | 219 | 1.6 | 11.3 | 0.00 | 0.00 | 0.00 | 84 | 1003.4 |
| 20260505123321 | 21 | 214 | 1.6 | 9.7 | 0.00 | 0.00 | 0.00 | 84 | 1003.2 |
| 20260505122821 | 21 | 231 | 1.6 | 8.0 | 0.00 | 0.00 | 0.00 | 84 | 1003.1 |
| 20260505122322 | 21 | 263 | 1.6 | 12.9 | 0.00 | 0.00 | 0.00 | 84 | 1003.1 |
| 20260505121822 | 21 | 188 | 3.2 | 12.9 | 0.00 | 0.00 | 0.00 | 84 | 1003.1 |
| 20260505121321 | 21 | 230 | 1.6 | 12.9 | 0.00 | 0.00 | 0.00 | 84 | 1002.9 |
| 20260505120821 | 21 | 210 | 1.6 | 9.7 | 0.00 | 0.00 | 0.00 | 84 | 1002.9 |
| 20260505120320 | 21 | 237 | 3.2 | 11.3 | 0.00 | 0.00 | 0.00 | 84 | 1002.7 |
| 20260505115824 | 21 | 214 | 3.2 | 11.3 | 0.00 | 0.00 | 0.00 | 84 | 1002.9 |
| 20260505115819 | 21 | 258 | 3.2 | 11.3 | 0.00 | 0.00 | 0.00 | 84 | 1002.8 |
| 20260505114936 | 21 | 215 | 3.2 | 12.9 | 0.00 | 0.00 | 0.00 | 84 | 1002.9 |
| 20260505114824 | 21 | 212 | 3.2 | 12.9 | 0.00 | 0.00 | 0.00 | 84 | 1002.9 |
| 20260505114819 | 21 | 243 | 1.6 | 9.7 | 0.00 | 0.00 | 0.00 | 84 | 1003.0 |
| 20260505113319 | 21 | 240 | 1.6 | 11.3 | 0.00 | 0.00 | 0.00 | 84 | 1002.8 |
| 20260505112820 | 21 | 207 | 1.6 | 8.0 | 0.00 | 0.00 | 0.00 | 84 | 1002.8 |
| 20260505112320 | 21 | 226 | 1.6 | 8.0 | 0.00 | 0.00 | 0.00 | 84 | 1002.8 |
| 20260505111820 | 21 | 175 | 1.6 | 8.0 | 0.00 | 0.00 | 0.00 | 84 | 1002.7 |
| 20260505111320 | 21 | 167 | 3.2 | 12.9 | 0.00 | 0.00 | 0.00 | 85 | 1002.8 |
| 20260505110818 | 21 | 200 | 1.6 | 12.9 | 0.00 | 0.00 | 0.00 | 85 | 1002.8 |
| 20260505110317 | 21 | 221 | 3.2 | 14.5 | 0.00 | 0.00 | 0.00 | 85 | 1002.8 |
| 20260505101815 | 21 | 236 | 1.6 | 9.7 | 0.00 | 0.00 | 0.00 | 85 | 1002.9 |
| 20260505101315 | 21 | 188 | 3.2 | 14.5 | 0.00 | 0.00 | 0.00 | 85 | 1003.0 |
| 20260505100815 | 21 | 4 | 3.2 | 14.5 | 0.00 | 0.00 | 0.00 | 85 | 1002.9 |
| 20260505100315 | 21 | 160 | 4.8 | 14.5 | 0.00 | 0.00 | 0.00 | 85 | 1002.8 |
| 20260505095814 | 21 | 212 | 3.2 | 12.9 | 0.00 | 0.00 | 0.00 | 85 | 1002.8 |
| 20260505095314 | 21 | 237 | 1.6 | 12.9 | 0.00 | 0.00 | 0.00 | 85 | 1002.9 |
| 20260505094810 | 21 | 172 | 3.2 | 17.7 | 0.00 | 0.00 | 0.00 | 85 | 1002.9 |
| 20260505094314 | 21 | 291 | 3.2 | 17.7 | 0.00 | 0.00 | 0.00 | 85 | 1002.6 |
| 20260505094309 | 21 | 257 | 3.2 | 16.1 | 0.00 | 0.00 | 0.00 | 85 | 1002.8 |
| 20260505093306 | 21 | 182 | 3.2 | 16.1 | 0.00 | 0.00 | 0.00 | 85 | 1003.0 |
| 20260505092807 | 21 | 195 | 3.2 | 17.7 | 0.00 | 0.00 | 0.00 | 84 | 1003.1 |
| 20260505092305 | 21 | 238 | 3.2 | 17.7 | 0.00 | 0.00 | 0.00 | 84 | 1003.0 |
| 20260505091808 | 21 | 211 | 3.2 | 9.7 | 0.00 | 0.00 | 0.00 | 84 | 1003.2 |
| 20260505091804 | 21 | 155 | 3.2 | 9.7 | 0.00 | 0.00 | 0.00 | 84 | 1003.1 |
| 20260505090802 | 22 | 202 | 3.2 | 14.5 | 0.00 | 0.00 | 0.00 | 84 | 1003.3 |
| 20260505090300 | 22 | 272 | 3.2 | 14.5 | 0.00 | 0.00 | 0.00 | 84 | 1003.3 |
| 20260505085800 | 22 | 207 | 3.2 | 17.7 | 0.00 | 0.00 | 0.00 | 83 | 1003.3 |
| 20260505085304 | 22 | 235 | 3.2 | 17.7 | 0.00 | 0.00 | 0.00 | 83 | 1003.3 |
| 20260505084801 | 22 | 233 | 3.2 | 16.1 | 0.00 | 0.00 | 0.00 | 83 | 1003.3 |
| 20260505084259 | 22 | 341 | 4.8 | 16.1 | 0.00 | 0.00 | 0.00 | 83 | 1003.3 |
| 20260505083758 | 22 | 217 | 4.8 | 19.3 | 0.00 | 0.00 | 0.00 | 83 | 1003.3 |
| 20260505083258 | 22 | 293 | 4.8 | 19.3 | 0.00 | 0.00 | 0.00 | 83 | 1003.3 |
| 20260505082755 | 22 | 297 | 3.2 | 16.1 | 0.00 | 0.00 | 0.00 | 83 | 1003.3 |
| 20260505082255 | 22 | 234 | 3.2 | 12.9 | 0.00 | 0.00 | 0.00 | 82 | 1003.3 |
| 20260505081755 | 22 | 271 | 3.2 | 20.9 | 0.00 | 0.00 | 0.00 | 82 | 1003.2 |
| 20260505081256 | 22 | 226 | 4.8 | 20.9 | 0.00 | 0.00 | 0.00 | 82 | 1003.2 |
| 20260505080752 | 22 | 214 | 3.2 | 17.7 | 0.00 | 0.00 | 0.00 | 82 | 1003.3 |
| 20260505080253 | 22 | 192 | 3.2 | 16.1 | 0.00 | 0.00 | 0.00 | 81 | 1003.3 |
| 20260505075759 | 22 | 86 | 3.2 | 16.1 | 0.00 | 0.00 | 0.00 | 80 | 1003.4 |
| 20260505075754 | 22 | 120 | 3.2 | 16.1 | 0.00 | 0.00 | 0.00 | 81 | 1003.2 |
| 20260505074753 | 22 | 228 | 3.2 | 16.1 | 0.00 | 0.00 | 0.00 | 80 | 1003.4 |
| 20260505074252 | 22 | 172 | 3.2 | 17.7 | 0.00 | 0.00 | 0.00 | 80 | 1003.5 |
| 20260505073752 | 22 | 186 | 3.2 | 17.7 | 0.00 | 0.00 | 0.00 | 79 | 1003.6 |
| 20260505073252 | 22 | 259 | 1.6 | 12.9 | 0.00 | 0.00 | 0.00 | 79 | 1003.7 |
| 20260505072752 | 22 | 229 | 3.2 | 16.1 | 0.00 | 0.00 | 0.00 | 79 | 1003.8 |
| 20260505072253 | 22 | 234 | 3.2 | 16.1 | 0.00 | 0.00 | 0.00 | 78 | 1004.0 |
| 20260505071752 | 22 | 216 | 3.2 | 16.1 | 0.00 | 0.00 | 0.00 | 78 | 1004.1 |
| 20260505071250 | 23 | 225 | 3.2 | 16.1 | 0.00 | 0.00 | 0.00 | 77 | 1004.2 |
| 20260505070750 | 23 | 100 | 1.6 | 11.3 | 0.00 | 0.00 | 0.00 | 77 | 1004.2 |
| 20260505070250 | 23 | 236 | 1.6 | 11.3 | 0.00 | 0.00 | 0.00 | 77 | 1004.3 |
| 20260505065750 | 23 | 264 | 3.2 | 14.5 | 0.00 | 0.00 | 0.00 | 77 | 1004.4 |
| 20260505065255 | 23 | 215 | 3.2 | 11.3 | 0.00 | 0.00 | 0.00 | 76 | 1004.5 |
| 20260505065250 | 23 | 219 | 1.6 | 14.5 | 0.00 | 0.00 | 0.00 | 76 | 1004.4 |
| 20260505064250 | 23 | 239 | 3.2 | 11.3 | 0.00 | 0.00 | 0.00 | 75 | 1004.6 |
| 20260505063750 | 23 | 182 | 4.8 | 14.5 | 0.00 | 0.00 | 0.00 | 75 | 1004.5 |
| 20260505063254 | 23 | 196 | 3.2 | 16.1 | 0.00 | 0.00 | 0.00 | 74 | 1004.7 |
| 20260505063250 | 23 | 252 | 3.2 | 14.5 | 0.00 | 0.00 | 0.00 | 75 | 1004.6 |
| 20260505062249 | 23 | 290 | 3.2 | 16.1 | 0.00 | 0.00 | 0.00 | 74 | 1004.6 |
| 20260505061748 | 23 | 313 | 3.2 | 14.5 | 0.00 | 0.00 | 0.00 | 73 | 1004.6 |
| 20260505061248 | 23 | 241 | 3.2 | 14.5 | 0.00 | 0.00 | 0.00 | 73 | 1004.6 |
| 20260505060749 | 23 | 217 | 3.2 | 14.5 | 0.00 | 0.00 | 0.00 | 72 | 1004.7 |
| 20260505060248 | 23 | 231 | 4.8 | 14.5 | 0.00 | 0.00 | 0.00 | 72 | 1004.7 |
| 20260505055753 | 23 | 216 | 1.6 | 14.5 | 0.00 | 0.00 | 0.00 | 71 | 1004.7 |
| 20260505055748 | 23 | 154 | 3.2 | 14.5 | 0.00 | 0.00 | 0.00 | 71 | 1004.7 |
| 20260505054747 | 24 | 198 | 4.8 | 17.7 | 0.00 | 0.00 | 0.00 | 70 | 1004.5 |
| 20260505054248 | 24 | 226 | 4.8 | 19.3 | 0.00 | 0.00 | 0.00 | 70 | 1004.5 |
| 20260505053747 | 24 | 222 | 4.8 | 19.3 | 0.00 | 0.00 | 0.00 | 69 | 1004.4 |
| 20260505053250 | 24 | 238 | 4.8 | 16.1 | 0.00 | 0.00 | 0.00 | 69 | 1004.4 |
| 20260505053246 | 24 | 223 | 4.8 | 16.1 | 0.00 | 0.00 | 0.00 | 69 | 1004.4 |
| 20260505052247 | 24 | 1 | 4.8 | 16.1 | 0.00 | 0.00 | 0.00 | 69 | 1004.4 |
| 20260505051748 | 24 | 220 | 4.8 | 16.1 | 0.00 | 0.00 | 0.00 | 70 | 1004.4 |
| 20260505051247 | 24 | 223 | 4.8 | 17.7 | 0.00 | 0.00 | 0.00 | 70 | 1004.5 |
| 20260505050747 | 24 | 231 | 3.2 | 17.7 | 0.00 | 0.00 | 0.00 | 71 | 1004.6 |